FW2845 Weather Reports


Display with metric or nautical units.
time (UTC)temp
F
wind
direction
speed
MPH
gust
MPH
rain 1hr
in
rain 24hr
in
rain mn
in
humidity
%
barometer
mb
20260505121615 51 14 0.0 1.0 0.04 0.05 0.05 72 1010.2
20260505121115 51 14 0.0 3.0 0.03 0.04 0.04 70 1010.2
20260505120615 52 14 1.0 4.0 0.02 0.03 0.03 69 1009.9
20260505120114 52 127 1.0 6.0 0.02 0.03 0.03 68 1009.6
20260505115553 52 15 3.0 6.0 0.01 0.02 0.02 66 1009.5
20260505115052 52 46 0.0 6.0 0.00 0.01 0.01 64 1009.3
20260505114552 52 23 2.0 6.0 0.00 0.01 0.01 64 1010.1
20260505114031 52 355 3.0 8.0 0.00 0.01 0.01 63 1010.0
20260505113530 52 344 1.0 8.0 0.00 0.01 0.01 62 1009.7
20260505113029 52 74 2.0 8.0 0.00 0.01 0.01 62 1009.5
20260505112529 52 22 3.0 8.0 0.00 0.01 0.01 62 1009.4
20260505112029 52 25 1.0 5.0 0.00 0.01 0.01 63 1009.9
20260505111528 52 5 0.0 5.0 0.00 0.01 0.01 63 1009.9
20260505111028 52 360 2.0 5.0 0.00 0.01 0.01 63 1009.9
20260505110506 52 22 3.0 6.0 0.00 0.01 0.01 63 1010.0
20260505101941 52 40 5.0 8.0 0.00 0.01 0.01 62 1009.5
20260505101441 52 20 2.0 7.0 0.00 0.01 0.01 63 1009.5
20260505100940 52 5 4.0 6.0 0.00 0.01 0.01 63 1009.6
20260505100419 52 9 2.0 9.0 0.00 0.01 0.01 63 1010.0
20260505095919 52 360 6.0 9.0 0.00 0.01 0.01 63 1009.9
20260505095357 52 5 2.0 5.0 0.00 0.01 0.01 63 1010.1
20260505094847 53 28 2.0 8.0 0.00 0.01 0.01 63 1009.9
20260505094346 53 360 3.0 9.0 0.00 0.01 0.01 63 1009.9
20260505093825 53 5 4.0 9.0 0.00 0.01 0.01 63 1009.9
20260505093325 53 26 5.0 12.0 0.00 0.01 0.01 62 1009.9
20260505092802 53 5 8.0 12.0 0.00 0.01 0.01 62 1010.0
20260505092227 53 345 8.0 12.0 0.00 0.01 0.01 62 1009.9
20260505091727 52 347 5.0 12.0 0.00 0.01 0.01 62 1009.4
20260505091226 52 355 4.0 15.0 0.00 0.01 0.01 63 1009.0
20260505090726 52 38 7.0 15.0 0.00 0.01 0.01 64 1008.7
20260505090208 52 360 3.0 13.0 0.00 0.01 0.01 65 1008.6
20260505085708 52 360 6.0 13.0 0.00 0.01 0.01 66 1008.4
20260505085146 52 47 5.0 13.0 0.00 0.01 0.01 67 1007.9
20260505084625 52 5 3.0 13.0 0.00 0.01 0.01 67 1007.7
20260505084124 52 360 4.0 13.0 0.00 0.01 0.01 67 1008.1
20260505083623 52 17 6.0 12.0 0.00 0.01 0.01 68 1008.3
20260505083118 52 360 4.0 12.0 0.00 0.01 0.01 68 1008.0
20260505082617 52 11 8.0 12.0 0.00 0.01 0.01 69 1007.5
20260505082116 52 341 2.0 6.0 0.00 0.01 0.01 70 1007.2
20260505081615 52 15 2.0 5.0 0.01 0.01 0.01 70 1007.4
20260505081115 52 345 2.0 8.0 0.01 0.01 0.01 70 1008.1
20260505080615 52 5 1.0 10.0 0.01 0.01 0.01 71 1008.6
20260505080114 52 350 6.0 10.0 0.01 0.01 0.01 70 1008.9
20260505075613 52 338 6.0 8.0 0.01 0.01 0.01 70 1008.8
20260505075113 53 13 1.0 8.0 0.01 0.01 0.01 69 1008.9
20260505074612 53 5 3.0 5.0 0.01 0.01 0.01 68 1008.7
20260505074111 53 14 2.0 9.0 0.01 0.01 0.01 67 1008.5
20260505073550 53 39 2.0 15.0 0.01 0.01 0.01 66 1008.7
20260505073029 54 22 7.0 15.0 0.01 0.01 0.01 65 1009.5
20260505072507 54 338 9.0 12.0 0.01 0.01 0.01 63 1009.7
20260505072007 55 19 7.0 14.0 0.01 0.01 0.01 62 1009.3
20260505071507 56 5 8.0 17.0 0.00 0.00 0.00 57 1009.2
20260505071006 57 355 10.0 17.0 0.00 0.00 0.00 54 1009.7
20260505070506 57 355 9.0 18.0 0.00 0.00 0.00 53 1009.7
20260505065957 58 355 11.0 22.0 0.00 0.00 0.00 50 1009.5
20260505065433 58 344 13.0 21.0 0.00 0.00 0.00 50 1009.0
20260505064933 58 20 9.0 22.0 0.00 0.00 0.00 47 1008.5
20260505064433 59 355 13.0 22.0 0.00 0.00 0.00 45 1007.9
20260505063932 59 5 12.0 18.0 0.00 0.00 0.00 45 1007.6
20260505063432 59 21 4.0 16.0 0.00 0.00 0.00 47 1007.6
20260505062911 59 22 4.0 14.0 0.00 0.00 0.00 46 1007.3
20260505062349 60 69 6.0 16.0 0.00 0.00 0.00 45 1007.0
20260505061848 60 94 8.0 21.0 0.00 0.00 0.00 45 1007.0
20260505061339 60 13 11.0 21.0 0.00 0.00 0.00 45 1007.0
20260505060839 61 16 8.0 20.0 0.00 0.00 0.00 46 1007.0
20260505060338 61 348 11.0 24.0 0.00 0.00 0.00 46 1006.8
20260505055817 61 5 17.0 24.0 0.00 0.00 0.00 46 1006.7
20260505055316 62 5 12.0 24.0 0.00 0.00 0.00 46 1006.5
20260505054816 62 5 16.0 27.0 0.00 0.00 0.00 45 1006.1
20260505054315 63 5 13.0 27.0 0.00 0.00 0.00 45 1006.1
20260505053815 64 341 15.0 22.0 0.00 0.00 0.00 44 1005.9
20260505053314 65 329 16.0 21.0 0.00 0.00 0.00 44 1006.3
20260505052814 65 360 15.0 23.0 0.00 0.00 0.00 44 1006.0
20260505052252 66 18 10.0 23.0 0.00 0.00 0.00 45 1005.9
20260505051751 66 355 12.0 23.0 0.00 0.00 0.00 45 1005.8
20260505051251 66 12 12.0 19.0 0.00 0.00 0.00 44 1005.6
20260505050750 67 350 8.0 15.0 0.00 0.00 0.00 45 1005.5
20260505050249 67 355 11.0 18.0 0.00 0.00 0.00 45 1005.4
20260505041728 70 5 6.0 14.0 0.00 0.00 0.00 48 1004.5
20260505041217 70 350 8.0 15.0 0.00 0.00 0.00 45 1004.7
20260505040656 70 10 7.0 18.0 0.00 0.00 0.00 45 1004.9
20260505040155 70 360 8.0 18.0 0.00 0.00 0.00 46 1004.6
20260505035655 70 329 10.0 13.0 0.00 0.00 0.00 51 1004.5
20260505035134 70 355 9.0 13.0 0.00 0.00 0.00 54 1004.5
20260505034633 69 15 6.0 12.0 0.00 0.00 0.00 59 1004.3
20260505034132 68 19 6.0 13.0 0.00 0.00 0.00 65 1004.3
20260505033632 67 328 6.0 13.0 0.00 0.00 0.00 68 1004.3
20260505033119 66 329 4.0 11.0 0.00 0.00 0.00 75 1004.1
20260505032618 65 335 3.0 12.0 0.00 0.00 0.00 78 1004.1
20260505032118 65 335 2.0 12.0 0.00 0.00 0.00 81 1004.0
20260505031556 65 180 1.0 4.0 0.00 0.00 0.00 78 1003.7
20260505031035 65 180 0.0 0.0 0.00 0.00 0.00 76 1003.4
20260505030535 66 180 0.0 0.0 0.00 0.00 0.00 76 1003.2
20260505030035 66 180 0.0 0.0 0.00 0.00 0.00 76 1003.2
20260505025534 66 180 0.0 0.0 0.00 0.00 0.00 76 1003.1
20260505025028 66 180 0.0 0.0 0.00 0.00 0.00 75 1003.1
20260505024527 66 180 0.0 0.0 0.00 0.00 0.00 75 1003.0
20260505024027 67 180 0.0 0.0 0.00 0.00 0.00 74 1003.0
20260505023526 67 180 0.0 0.0 0.00 0.00 0.00 73 1002.9
20260505023011 67 180 0.0 0.0 0.00 0.00 0.00 73 1002.9
20260505022432 68 180 0.0 0.0 0.00 0.00 0.00 72 1002.8
20260505021931 68 180 0.0 0.0 0.00 0.00 0.00 70 1002.7
20260505021431 69 180 0.0 1.0 0.00 0.00 0.00 69 1002.7
20260505020931 69 180 0.0 2.0 0.00 0.00 0.00 68 1002.7
20260505020430 70 180 1.0 2.0 0.00 0.00 0.00 67 1002.5
20260505015930 70 180 1.0 2.0 0.00 0.00 0.00 68 1002.5
20260505015415 71 180 0.0 0.0 0.00 0.00 0.00 65 1002.4
20260505014907 72 180 0.0 0.0 0.00 0.00 0.00 64 1002.3
20260505014407 72 180 0.0 0.0 0.00 0.00 0.00 63 1002.2
20260505013907 73 180 0.0 0.0 0.00 0.00 0.00 62 1002.0
20260505013406 73 180 0.0 0.0 0.00 0.00 0.00 62 1002.0
20260505012906 74 180 0.0 0.0 0.00 0.00 0.00 59 1001.8
20260505012356 74 180 0.0 0.0 0.00 0.00 0.00 60 1001.9
20260505011848 75 180 0.0 0.0 0.00 0.00 0.00 58 1001.8
20260505011346 75 180 0.0 0.0 0.00 0.00 0.00 57 1001.7
20260505010846 76 180 0.0 0.0 0.00 0.00 0.00 56 1001.6
20260505010345 76 180 0.0 0.0 0.00 0.00 0.00 56 1001.7
20260505005845 77 180 0.0 0.0 0.00 0.00 0.00 55 1001.6
20260505005323 77 180 0.0 0.0 0.00 0.00 0.00 54 1001.6
20260505004802 78 180 0.0 0.0 0.00 0.00 0.00 54 1001.5
20260505003738 78 180 0.0 0.0 0.00 0.00 0.00 54 1001.5
20260505003217 78 180 0.0 3.0 0.00 0.00 0.00 53 1001.5
20260505002716 79 180 0.0 4.0 0.00 0.00 0.00 53 1001.5
20260505002216 79 180 1.0 4.0 0.00 0.00 0.00 52 1001.4
20260505001715 79 186 1.0 4.0 0.00 0.00 0.00 53 1001.5
20260505001215 79 187 1.0 5.0 0.00 0.00 0.00 52 1001.6
20260505000715 80 210 1.0 5.0 0.00 0.00 0.00 50 1001.6
20260505000214 80 205 2.0 4.0 0.00 0.00 0.00 50 1001.6
20260504235713 80 205 1.0 6.0 0.00 0.00 0.00 50 1001.7
20260504235213 80 205 3.0 5.0 0.00 0.00 0.00 50 1001.8
20260504234713 80 211 3.0 5.0 0.00 0.00 0.00 47 1001.7
20260504234212 80 183 2.0 6.0 0.00 0.00 0.00 47 1001.6
20260504233711 80 206 1.0 6.0 0.00 0.00 0.00 46 1001.7
20260504233149 80 207 2.0 6.0 0.00 0.00 0.00 45 1001.7
20260504232649 81 202 2.0 7.0 0.00 0.00 0.00 45 1001.7
20260504232128 81 225 2.0 7.0 0.00 0.00 0.00 45 1001.6
20260504231627 81 187 5.0 9.0 0.00 0.00 0.00 45 1001.7
20260504231106 81 209 2.0 9.0 0.00 0.00 0.00 44 1001.7
20260504230606 81 199 4.0 7.0 0.00 0.00 0.00 45 1001.7
20260504230045 81 205 4.0 8.0 0.00 0.00 0.00 45 1001.8
20260504225523 81 220 4.0 9.0 0.00 0.00 0.00 45 1001.7
20260504225022 82 206 5.0 9.0 0.00 0.00 0.00 45 1001.6
20260504224521 82 219 3.0 8.0 0.00 0.00 0.00 46 1001.7
20260504224021 82 194 5.0 8.0 0.00 0.00 0.00 44 1001.6
20260504223452 82 209 2.0 10.0 0.00 0.00 0.00 43 1001.7
20260504222951 83 207 3.0 10.0 0.00 0.00 0.00 42 1001.7
20260504222450 83 216 3.0 9.0 0.00 0.00 0.00 44 1001.7
20260504221929 83 190 5.0 9.0 0.00 0.00 0.00 44 1001.6
20260504221428 83 222 6.0 9.0 0.00 0.00 0.00 44 1001.7
20260504220928 82 198 4.0 9.0 0.00 0.00 0.00 44 1001.8
20260504220428 82 193 4.0 10.0 0.00 0.00 0.00 45 1001.7
20260504215927 82 183 6.0 11.0 0.00 0.00 0.00 43 1001.7
20260504215427 82 225 5.0 10.0 0.00 0.00 0.00 44 1001.7
20260504214927 82 215 5.0 10.0 0.00 0.00 0.00 43 1001.7
20260504214406 82 230 4.0 8.0 0.00 0.00 0.00 43 1001.7
20260504213905 82 190 5.0 10.0 0.00 0.00 0.00 43 1001.7
20260504213405 83 250 5.0 10.0 0.00 0.00 0.00 41 1001.8
20260504212904 83 231 6.0 10.0 0.00 0.00 0.00 42 1001.9
20260504212403 83 221 6.0 10.0 0.00 0.00 0.00 42 1001.9
20260504211903 83 252 5.0 10.0 0.00 0.00 0.00 41 1001.7
20260504211403 83 213 5.0 10.0 0.00 0.00 0.00 41 1001.8
20260504210841 83 235 6.0 10.0 0.00 0.00 0.00 42 1001.8
20260504210320 84 237 4.0 10.0 0.00 0.00 0.00 40 1001.9
20260504205820 84 219 6.0 10.0 0.00 0.00 0.00 41 1002.0
20260504205258 84 207 5.0 11.0 0.00 0.00 0.00 41 1002.1
20260504204757 84 205 3.0 11.0 0.00 0.00 0.00 42 1002.2
20260504204257 84 223 8.0 10.0 0.00 0.00 0.00 41 1002.2
20260504203757 84 198 3.0 9.0 0.00 0.00 0.00 41 1002.3
20260504203256 84 220 7.0 9.0 0.00 0.00 0.00 42 1002.5
20260504202756 84 163 4.0 10.0 0.00 0.00 0.00 45 1002.5
20260504202234 84 241 2.0 11.0 0.00 0.00 0.00 43 1002.6
20260504201733 84 152 7.0 11.0 0.00 0.00 0.00 44 1002.6
20260504201233 83 205 4.0 11.0 0.00 0.00 0.00 43 1002.6
20260504200732 83 263 6.0 11.0 0.00 0.00 0.00 41 1002.5
20260504200232 83 242 7.0 9.0 0.00 0.00 0.00 43 1002.6
20260504195731 83 236 4.0 8.0 0.00 0.00 0.00 48 1002.5
20260504195230 83 214 5.0 14.0 0.00 0.00 0.00 45 1002.5
20260504194729 83 225 7.0 14.0 0.00 0.00 0.00 44 1002.6
20260504194229 83 223 8.0 14.0 0.00 0.00 0.00 43 1002.5
20260504193729 83 225 5.0 14.0 0.00 0.00 0.00 44 1002.5
20260504193229 82 150 6.0 13.0 0.00 0.00 0.00 44 1002.6
20260504192728 82 206 4.0 15.0 0.00 0.00 0.00 45 1002.5
20260504192228 82 256 11.0 15.0 0.00 0.00 0.00 47 1002.5
20260504191727 82 226 3.0 11.0 0.00 0.00 0.00 48 1002.5
20260504191227 81 168 6.0 11.0 0.00 0.00 0.00 47 1002.5
20260504190726 81 213 6.0 11.0 0.00 0.00 0.00 47 1002.6
20260504190226 81 167 7.0 12.0 0.00 0.00 0.00 48 1002.6
20260504185726 81 206 7.0 11.0 0.00 0.00 0.00 48 1002.6
20260504185225 80 244 5.0 13.0 0.00 0.00 0.00 48 1002.6
20260504184724 80 263 9.0 13.0 0.00 0.00 0.00 48 1002.6
20260504184203 80 188 7.0 11.0 0.00 0.00 0.00 50 1002.7
20260504183702 80 182 5.0 14.0 0.00 0.00 0.00 50 1002.6
20260504183202 80 219 7.0 14.0 0.00 0.00 0.00 48 1002.7
20260504182700 79 207 3.0 11.0 0.00 0.00 0.00 49 1002.7
20260504182159 79 219 6.0 11.0 0.00 0.00 0.00 49 1002.7
20260504181659 79 200 8.0 11.0 0.00 0.00 0.00 51 1002.7
20260504181159 78 196 6.0 10.0 0.00 0.00 0.00 53 1002.8
20260504180658 78 205 6.0 15.0 0.00 0.00 0.00 51 1002.8
20260504180158 78 255 7.0 15.0 0.00 0.00 0.00 49 1002.9
20260504175657 78 254 7.0 15.0 0.00 0.00 0.00 49 1003.0
20260504175157 77 261 6.0 15.0 0.00 0.00 0.00 49 1003.1
20260504174656 77 210 7.0 11.0 0.00 0.00 0.00 52 1003.0
20260504174156 77 219 6.0 14.0 0.00 0.00 0.00 54 1003.0
20260504173655 76 227 5.0 14.0 0.00 0.00 0.00 53 1003.2
20260504173133 76 241 7.0 13.0 0.00 0.00 0.00 52 1003.0
20260504172633 76 227 9.0 13.0 0.00 0.00 0.00 53 1003.1
20260504172133 76 217 6.0 13.0 0.00 0.00 0.00 56 1003.2
20260504171633 75 168 6.0 12.0 0.00 0.00 0.00 56 1003.3
20260504171132 75 157 5.0 12.0 0.00 0.00 0.00 56 1003.2
20260504170611 74 244 9.0 13.0 0.00 0.00 0.00 56 1003.3
20260504170110 74 220 8.0 19.0 0.00 0.00 0.00 57 1003.3
20260504150936 70 180 6.0 13.0 0.00 0.00 0.00 61 1003.8
20260504150415 69 221 8.0 13.0 0.00 0.00 0.00 61 1003.8
20260504141226 67 194 7.0 13.0 0.00 0.00 0.00 62 1003.9
20260504140705 67 161 6.0 19.0 0.00 0.00 0.00 64 1004.0
20260504140204 67 193 5.0 19.0 0.00 0.00 0.00 64 1004.0
20260504130616 61 194 4.0 9.0 0.00 0.00 0.00 76 1003.8
20260504130116 60 198 5.0 11.0 0.00 0.00 0.00 77 1003.7